EW7082 Sequim WA US current weather conditions

sailwx.info

Wind from 026 at 1 knots gusting 4

Air temperature 8.9° C
Dewpoint 8.6° C

Last reported at 2019-Dec-08 20:02 UTC.
Time now 2019-Dec-08 20:50 UTC

Location: N 48°06' W 123°08'.
View on Google Maps.

See reports from other nearby stations

  
Tides and Currents Weather Stations Pressure Air Temp Water Temp Dewpoint Dewpoint Depression Visibility Wind Speed Wind Dir Waves Ship Positions
date/time (UTC)wind fromknots sea level pressurealtimeterstation pressurevisibilityair tempwater tempwave heightnotes
2019-Dec-08 20:02 026 1 gusting 4 8.9
2019-Dec-08 19:57 010 2 gusting 4 8.9
2019-Dec-08 19:52 048 1 gusting 2 8.9
2019-Dec-08 19:47 029 1 gusting 2 8.9
2019-Dec-08 19:42 026 2 gusting 2 8.9
2019-Dec-08 19:37 049 1 gusting 2 8.9
2019-Dec-08 19:32 051 2 gusting 5 8.9
2019-Dec-08 19:27 044 2 gusting 4 8.9
2019-Dec-08 19:22 030 1 gusting 4 8.9
2019-Dec-08 19:17 027 1 gusting 2 9.4
2019-Dec-08 19:12 117 1 gusting 2 9.4
2019-Dec-08 19:07 215 0 gusting 2 9.4
2019-Dec-08 19:02 236 1 gusting 2 9.4
2019-Dec-08 18:57 236 1 gusting 2 9.4
2019-Dec-08 18:52 236 0 gusting 2 8.9
2019-Dec-08 18:47 236 0 gusting 1 8.9
2019-Dec-08 18:42 236 0 gusting 1 8.9
2019-Dec-08 18:37 236 0 gusting 0 8.9
2019-Dec-08 18:32 236 0 gusting 1 8.9
2019-Dec-08 18:27 236 0 gusting 1 8.9
2019-Dec-08 18:22 236 0 gusting 1 8.9
2019-Dec-08 18:17 236 0 gusting 1 8.3
2019-Dec-08 18:12 236 0 gusting 1 8.3
2019-Dec-08 18:07 236 0 gusting 1 8.3
2019-Dec-08 18:02 236 0 gusting 1 8.3
2019-Dec-08 17:57 236 0 gusting 1 8.3
2019-Dec-08 17:52 236 8.3
2019-Dec-08 17:47 236 8.3
2019-Dec-08 17:42 236 0 gusting 0 8.3
2019-Dec-08 17:37 236 0 gusting 1 8.3
2019-Dec-08 17:32 236 0 gusting 0 8.3
2019-Dec-08 17:27 236 0 gusting 1 7.8
2019-Dec-08 17:22 236 0 gusting 0 7.8
2019-Dec-08 17:17 236 7.8
2019-Dec-08 17:12 236 7.8
2019-Dec-08 17:07 236 7.8
2019-Dec-08 17:02 236 0 gusting 0 7.8
2019-Dec-08 16:57 236 7.8
2019-Dec-08 16:52 236 7.8
2019-Dec-08 16:47 236 0 gusting 1 7.8
2019-Dec-08 16:42 236 0 gusting 1 7.8
2019-Dec-08 16:37 236 7.8
2019-Dec-08 16:32 236 7.8
2019-Dec-08 16:27 236 0 gusting 0 7.8
2019-Dec-08 16:22 236 0 gusting 0 7.8
2019-Dec-08 16:17 236 7.8
2019-Dec-08 16:12 236 7.8
2019-Dec-08 16:07 236 7.8
2019-Dec-08 16:02 236 7.8
2019-Dec-08 15:57 236 0 gusting 1 7.8
2019-Dec-08 15:52 236 2 gusting 4 7.8
2019-Dec-08 15:47 242 1 gusting 2 7.8
2019-Dec-08 15:42 242 0 gusting 1 7.2
2019-Dec-08 15:37 242 1 gusting 1 7.8
2019-Dec-08 15:32 242 0 gusting 2 7.8
2019-Dec-08 15:27 242 0 gusting 1 7.8
2019-Dec-08 15:22 242 1 gusting 2 7.8
2019-Dec-08 15:17 242 0 gusting 1 7.8
2019-Dec-08 15:12 242 1 gusting 1 7.8
2019-Dec-08 15:07 242 7.8
2019-Dec-08 15:02 242 7.8
2019-Dec-08 14:57 242 7.8
2019-Dec-08 14:52 242 0 gusting 0 7.8
2019-Dec-08 14:47 242 0 gusting 1 7.8
2019-Dec-08 14:42 242 0 gusting 1 7.8
2019-Dec-08 14:37 242 0 gusting 1 7.8
2019-Dec-08 14:32 242 7.8
2019-Dec-08 14:27 242 0 gusting 1 7.8
2019-Dec-08 14:22 242 7.8
2019-Dec-08 14:17 242 7.8
2019-Dec-08 14:12 242 7.8
2019-Dec-08 14:07 242 7.8
2019-Dec-08 14:02 242 0 gusting 1 7.8
2019-Dec-08 13:57 242 0 gusting 1 7.8
2019-Dec-08 13:52 242 0 gusting 1 8.3
2019-Dec-08 13:47 242 0 gusting 1 8.3
2019-Dec-08 13:42 242 8.3
2019-Dec-08 13:37 242 8.3
2019-Dec-08 13:32 242 8.3
2019-Dec-08 13:27 242 8.3
2019-Dec-08 13:22 242 8.3
2019-Dec-08 13:17 242 8.3
2019-Dec-08 13:12 242 0 gusting 1 8.3
2019-Dec-08 13:07 242 0 gusting 1 8.3
2019-Dec-08 13:02 242 0 gusting 1 8.3
2019-Dec-08 12:57 242 1 gusting 2 8.3
2019-Dec-08 12:52 242 0 gusting 2 8.3
2019-Dec-08 12:47 242 1 gusting 2 8.3
2019-Dec-08 12:42 242 8.3
2019-Dec-08 12:37 242 0 gusting 1 8.3
2019-Dec-08 12:32 242 1 gusting 1 8.3
2019-Dec-08 12:27 242 0 gusting 1 8.3
2019-Dec-08 12:22 242 1 gusting 2 8.3
2019-Dec-08 12:17 242 0 gusting 1 8.3
2019-Dec-08 12:12 242 0 gusting 1 8.3
2019-Dec-08 12:07 242 0 gusting 1 8.3
2019-Dec-08 12:02 242 0 gusting 0 8.3
2019-Dec-08 11:57 242 0 gusting 1 8.3
2019-Dec-08 11:52 242 0 gusting 1 8.3
2019-Dec-08 11:47 242 0 gusting 2 8.3
2019-Dec-08 11:42 242 1 gusting 2 8.3
2019-Dec-08 11:37 242 0 gusting 2 8.3
2019-Dec-08 11:32 242 2 gusting 2 8.3
2019-Dec-08 11:27 242 0 gusting 1 8.3
2019-Dec-08 11:22 242 1 gusting 1 8.3
2019-Dec-08 11:17 244 8.3
2019-Dec-08 11:12 242 1 gusting 2 8.3
2019-Dec-08 11:07 242 1 gusting 4 8.3
2019-Dec-08 11:02 254 1 gusting 4 8.3
2019-Dec-08 10:57 259 1 gusting 2 8.3
2019-Dec-08 10:52 259 1 gusting 2 8.3
2019-Dec-08 10:47 259 1 gusting 2 8.3
2019-Dec-08 10:42 259 1 gusting 2 8.3
2019-Dec-08 10:37 259 1 gusting 2 8.3
2019-Dec-08 10:32 259 1 gusting 2 8.3
2019-Dec-08 10:27 259 1 gusting 2 8.3
2019-Dec-08 10:22 259 1 gusting 2 8.3
2019-Dec-08 10:17 259 1 gusting 2 8.3
2019-Dec-08 10:12 259 1 gusting 2 8.3
2019-Dec-08 10:07 259 2 gusting 2 8.3
2019-Dec-08 10:02 271 1 gusting 2 8.3
2019-Dec-08 09:57 298 0 gusting 1 8.3
2019-Dec-08 09:52 298 1 gusting 2 8.3
2019-Dec-08 09:47 298 1 gusting 2 8.3
2019-Dec-08 09:42 298 1 gusting 2 8.3
2019-Dec-08 09:37 298 1 gusting 2 8.3
2019-Dec-08 09:32 298 0 gusting 2 8.3
2019-Dec-08 09:27 298 0 gusting 1 8.3
2019-Dec-08 09:22 298 0 gusting 1 8.3
2019-Dec-08 09:17 298 0 gusting 1 8.3
2019-Dec-08 09:12 298 0 gusting 2 8.3
2019-Dec-08 09:07 298 0 gusting 1 8.3
2019-Dec-08 09:02 298 0 gusting 0 8.3
2019-Dec-08 08:56 298 0 gusting 1 7.8
2019-Dec-08 08:51 298 0 gusting 1 7.8
2019-Dec-08 08:47 298 0 gusting 1 7.8
2019-Dec-08 08:41 298 7.8
2019-Dec-08 08:36 298 7.8
2019-Dec-08 08:32 298 0 gusting 1 7.8
2019-Dec-08 08:27 298 0 gusting 1 7.8
2019-Dec-08 08:22 298 0 gusting 2 7.8
2019-Dec-08 08:17 298 8.3
2019-Dec-08 08:12 298 8.3
2019-Dec-08 08:07 298 0 gusting 1 8.3
2019-Dec-08 08:02 298 0 gusting 1 8.3
2019-Dec-08 07:57 298 1 gusting 2 8.3
2019-Dec-08 07:52 298 1 gusting 1 8.3
2019-Dec-08 07:47 298 0 gusting 1 8.3
2019-Dec-08 07:42 298 0 gusting 1 8.3
2019-Dec-08 07:37 298 8.3
2019-Dec-08 07:31 298 1 gusting 2 8.3
2019-Dec-08 07:27 298 1 gusting 2 8.3
2019-Dec-08 07:22 261 1 gusting 2 8.3
2019-Dec-08 07:17 261 1 gusting 1 8.3
2019-Dec-08 07:12 260 0 gusting 1 8.3
2019-Dec-08 07:07 260 0 gusting 1 8.3
2019-Dec-08 07:02 260 0 gusting 1 8.3
2019-Dec-08 06:56 261 0 gusting 1 8.3
2019-Dec-08 06:51 261 0 gusting 0 8.3
2019-Dec-08 06:47 260 0 gusting 1 8.3
2019-Dec-08 06:41 261 0 gusting 2 8.3
2019-Dec-08 06:37 261 0 gusting 1 8.3
2019-Dec-08 06:32 261 1 gusting 2 8.3
2019-Dec-08 06:26 260 1 gusting 2 8.3
2019-Dec-08 06:22 260 1 gusting 2 8.3
2019-Dec-08 06:17 260 0 gusting 1 8.3
2019-Dec-08 06:12 260 0 gusting 1 8.3
2019-Dec-08 06:07 260 0 gusting 1 8.3
2019-Dec-08 06:02 261 1 gusting 2 8.3
2019-Dec-08 05:57 261 2 gusting 2 8.3
2019-Dec-08 05:52 290 0 gusting 2 8.3
2019-Dec-08 05:47 290 1 gusting 2 8.3
2019-Dec-08 05:42 290 0 gusting 1 8.3
2019-Dec-08 05:37 290 0 gusting 1 8.3
2019-Dec-08 05:32 290 0 gusting 1 8.3
2019-Dec-08 05:27 290 0 gusting 1 8.3
2019-Dec-08 05:21 290 0 gusting 1 7.8
2019-Dec-08 05:17 290 0 gusting 1 7.8
2019-Dec-08 05:11 290 0 gusting 1 7.8
2019-Dec-08 05:07 290 0 gusting 1 7.8
2019-Dec-08 05:02 290 0 gusting 1 7.8
2019-Dec-08 04:56 290 0 gusting 1 7.8
2019-Dec-08 04:52 290 0 gusting 1 7.8
2019-Dec-08 04:47 075 0 gusting 2 7.8
2019-Dec-08 04:42 075 7.8
2019-Dec-08 04:37 075 7.2
2019-Dec-08 04:32 075 0 gusting 1 7.2
2019-Dec-08 04:27 075 0 gusting 0 7.8
2019-Dec-08 04:22 075 7.8
2019-Dec-08 04:17 075 7.8
2019-Dec-08 04:11 075 7.8
2019-Dec-08 04:07 075 7.8
2019-Dec-08 04:02 075 0 gusting 0 7.8
2019-Dec-08 03:57 075 0 gusting 1 7.8
2019-Dec-08 03:52 075 0 gusting 1 7.8
2019-Dec-08 03:47 075 7.8
2019-Dec-08 03:41 075 7.8
2019-Dec-08 03:37 075 0 gusting 0 7.8
2019-Dec-08 03:32 075 7.8
2019-Dec-08 03:27 075 7.8
2019-Dec-08 03:21 075 7.8
2019-Dec-08 03:17 075 7.8
2019-Dec-08 03:12 075 7.8
2019-Dec-08 03:07 075 7.8
2019-Dec-08 03:02 075 0 gusting 0 7.8
2019-Dec-08 02:56 075 7.8
2019-Dec-08 02:52 075 7.8
2019-Dec-08 02:47 075 7.8
2019-Dec-08 02:41 075 7.8
2019-Dec-08 02:37 075 7.8
2019-Dec-08 02:32 075 8.3
2019-Dec-08 02:27 075 7.8
2019-Dec-08 02:21 075 7.8
2019-Dec-08 02:17 075 0 gusting 1 7.8
2019-Dec-08 02:12 075 0 gusting 0 7.8
2019-Dec-08 02:07 075 0 gusting 0 7.8
2019-Dec-08 02:02 075 7.8
2019-Dec-08 01:57 075 7.8
2019-Dec-08 01:52 075 8.3
2019-Dec-08 01:47 075 0 gusting 0 8.3
2019-Dec-08 01:42 075 8.3
2019-Dec-08 01:37 075 0 gusting 1 7.8
2019-Dec-08 01:32 075 8.3
2019-Dec-08 01:27 075 0 gusting 0 8.3
2019-Dec-08 01:22 075 8.3
2019-Dec-08 01:17 075 8.3
2019-Dec-08 01:12 075 8.3
2019-Dec-08 01:07 075 0 gusting 1 8.3
2019-Dec-08 01:02 075 0 gusting 1 8.3
2019-Dec-08 00:57 075 0 gusting 1 8.3
2019-Dec-08 00:52 075 0 gusting 1 8.3
2019-Dec-08 00:47 075 8.3
2019-Dec-08 00:42 075 8.3
2019-Dec-08 00:37 075 8.3
2019-Dec-08 00:32 075 0 gusting 1 8.9
2019-Dec-08 00:27 075 0 gusting 2 8.9
2019-Dec-08 00:22 075 0 gusting 1 8.9
2019-Dec-08 00:17 075 0 gusting 1 8.9
2019-Dec-08 00:12 075 0 gusting 1 8.9
2019-Dec-08 00:07 075 8.9
2019-Dec-08 00:02 075 0 gusting 0 8.9
2019-Dec-07 23:57 075 0 gusting 1 8.9
2019-Dec-07 23:52 075 0 gusting 1 8.9
2019-Dec-07 23:47 075 0 gusting 2 8.9
2019-Dec-07 23:42 091 1 gusting 2 9.4
2019-Dec-07 23:37 092 1 gusting 1 9.4
2019-Dec-07 23:32 092 0 gusting 1 9.4
2019-Dec-07 23:27 092 0 gusting 1 9.4
2019-Dec-07 23:22 092 0 gusting 1 9.4
2019-Dec-07 23:17 092 0 gusting 2 9.4
2019-Dec-07 23:12 092 0 gusting 1 9.4
2019-Dec-07 23:07 092 0 gusting 1 9.4
2019-Dec-07 23:02 092 9.4
2019-Dec-07 22:57 092 0 gusting 1 9.4
2019-Dec-07 22:52 092 0 gusting 1 9.4
2019-Dec-07 22:47 092 1 gusting 1 9.4
2019-Dec-07 22:42 092 0 gusting 1 9.4
2019-Dec-07 22:37 092 0 gusting 1 9.4
2019-Dec-07 22:32 092 0 gusting 1 9.4
2019-Dec-07 22:27 092 0 gusting 1 9.4
2019-Dec-07 22:22 092 0 gusting 1 9.4
2019-Dec-07 22:17 074 1 gusting 2 9.4
2019-Dec-07 22:12 027 0 gusting 1 8.9
2019-Dec-07 22:07 026 0 gusting 1 8.9
2019-Dec-07 22:02 026 8.9
2019-Dec-07 21:57 026 8.9
2019-Dec-07 21:52 026 8.9
2019-Dec-07 21:47 026 8.9
2019-Dec-07 21:42 026 0 gusting 0 8.9
2019-Dec-07 21:37 026 8.9
2019-Dec-07 21:32 026 0 gusting 1 8.9
2019-Dec-07 21:27 026 1 gusting 2 8.9
2019-Dec-07 21:22 026 1 gusting 2 8.9
2019-Dec-07 21:16 026 0 gusting 2 8.9
2019-Dec-07 21:12 026 0 gusting 1 8.9
2019-Dec-07 21:07 026 0 gusting 1 8.9
2019-Dec-07 21:01 026 0 gusting 0 8.9
2019-Dec-07 20:57 026 0 gusting 1 8.9
2019-Dec-07 20:52 026 1 gusting 2 8.9
2019-Dec-07 20:47 026 0 gusting 1 8.9
2019-Dec-07 20:42 026 0 gusting 2 8.9
2019-Dec-07 20:37 186 0 gusting 1 8.9
2019-Dec-07 20:32 186 0 gusting 2 8.9
2019-Dec-07 20:27 187 0 gusting 2 8.9
2019-Dec-07 20:22 187 1 gusting 2 8.9
2019-Dec-07 20:17 187 1 gusting 2 8.9
2019-Dec-07 20:12 187 1 gusting 2 8.9
2019-Dec-07 20:07 187 1 gusting 2 8.9
2019-Dec-07 20:02 187 8.9
2019-Dec-07 19:57 187 0 gusting 1 8.3
2019-Dec-07 19:52 187 0 gusting 1 8.3
2019-Dec-07 19:46 187 0 gusting 1 8.3
2019-Dec-07 19:42 187 0 gusting 2 8.3
2019-Dec-07 19:37 187 0 gusting 1 8.3
2019-Dec-07 19:32 187 0 gusting 1 8.3
2019-Dec-07 19:27 187 0 gusting 1 8.3
2019-Dec-07 19:22 187 0 gusting 1 7.8
2019-Dec-07 19:17 187 7.8
2019-Dec-07 19:12 187 7.8
2019-Dec-07 19:07 187 7.8
2019-Dec-07 19:02 187 7.8
2019-Dec-07 18:57 187 7.8
2019-Dec-07 18:52 187 7.8
2019-Dec-07 18:47 187 0 gusting 0 7.8
2019-Dec-07 18:42 187 0 gusting 0 7.8
2019-Dec-07 18:37 187 7.8
2019-Dec-07 18:32 187 7.2
2019-Dec-07 18:27 187 0 gusting 1 7.2
2019-Dec-07 18:22 187 0 gusting 1 7.2
2019-Dec-07 18:17 187 0 gusting 1 7.2
2019-Dec-07 18:11 187 7.2
2019-Dec-07 18:07 187 7.2
2019-Dec-07 18:02 187 7.2
2019-Dec-07 17:57 187 7.2
2019-Dec-07 17:52 187 7.2
2019-Dec-07 17:46 187 7.2
2019-Dec-07 17:42 187 7.2
2019-Dec-07 17:37 187 7.2
2019-Dec-07 17:32 187 6.7
2019-Dec-07 17:27 187 6.7
2019-Dec-07 17:22 187 6.7
2019-Dec-07 17:17 187 6.7
2019-Dec-07 17:12 187 0 gusting 0 6.7
2019-Dec-07 17:07 187 6.7
2019-Dec-07 17:02 187 6.7
2019-Dec-07 16:57 187 6.7
2019-Dec-07 16:52 187 6.7
2019-Dec-07 16:47 187 0 gusting 0 6.7
2019-Dec-07 16:42 187 6.7
2019-Dec-07 16:37 187 6.7
2019-Dec-07 16:32 187 6.7
2019-Dec-07 16:27 187 6.7
2019-Dec-07 16:22 187 6.7
2019-Dec-07 16:17 187 6.7
2019-Dec-07 16:12 187 0 gusting 1 6.7
2019-Dec-07 16:07 187 6.7
2019-Dec-07 16:02 187 0 gusting 1 6.1
2019-Dec-07 15:57 187 0 gusting 1 6.1
2019-Dec-07 15:52 187 1 gusting 1 6.1
2019-Dec-07 15:47 187 6.1
2019-Dec-07 15:42 187 6.1
2019-Dec-07 15:37 187 6.1
2019-Dec-07 15:32 187 0 gusting 0 6.1
2019-Dec-07 15:27 187 6.1
2019-Dec-07 15:22 187 0 gusting 0 6.1
2019-Dec-07 15:17 187 0 gusting 0 6.1
2019-Dec-07 15:12 187 6.1
2019-Dec-07 15:07 187 0 gusting 0 6.1
2019-Dec-07 15:02 187 0 gusting 0 6.1
2019-Dec-07 14:57 187 0 gusting 0 6.1
2019-Dec-07 14:52 187 6.1
2019-Dec-07 14:47 187 0 gusting 1 6.1
2019-Dec-07 14:42 187 6.1
2019-Dec-07 14:37 187 0 gusting 0 6.1
2019-Dec-07 14:32 187 6.1
2019-Dec-07 14:27 187 6.1
2019-Dec-07 14:22 187 6.1
2019-Dec-07 14:17 187 6.1
2019-Dec-07 14:12 187 6.1
2019-Dec-07 14:07 187 6.1
2019-Dec-07 14:02 187 6.1
2019-Dec-07 13:57 187 6.1
2019-Dec-07 13:52 187 6.1
2019-Dec-07 13:47 187 6.1
2019-Dec-07 13:42 187 6.1
2019-Dec-07 13:37 187 6.1
2019-Dec-07 13:32 187 6.1
2019-Dec-07 13:27 187 6.1
2019-Dec-07 13:22 187 6.1
2019-Dec-07 13:17 187 6.1
2019-Dec-07 13:12 187 0 gusting 0 6.1
2019-Dec-07 13:07 187 6.1
2019-Dec-07 13:02 187 0 gusting 1 6.1
2019-Dec-07 12:57 187 6.1
2019-Dec-07 12:52 187 6.1
2019-Dec-07 12:47 187 0 gusting 0 6.1
2019-Dec-07 12:42 187 6.1
2019-Dec-07 12:37 187 6.1
2019-Dec-07 12:32 187 6.1
2019-Dec-07 12:27 187 6.1
2019-Dec-07 12:22 187 6.1
2019-Dec-07 12:17 187 0 gusting 0 6.1
2019-Dec-07 12:12 187 0 gusting 0 6.1
2019-Dec-07 12:07 187 6.1
2019-Dec-07 12:02 187 6.1
2019-Dec-07 11:57 187 6.1
2019-Dec-07 11:52 187 6.1
2019-Dec-07 11:47 187 6.1
2019-Dec-07 11:42 187 6.1
2019-Dec-07 11:37 187 6.1
2019-Dec-07 11:32 187 6.1
2019-Dec-07 11:27 187 6.1
2019-Dec-07 11:22 187 6.1
2019-Dec-07 11:17 187 6.1
2019-Dec-07 11:12 187 6.1
2019-Dec-07 11:07 187 6.1
2019-Dec-07 11:02 187 6.1
2019-Dec-07 10:57 187 6.1
2019-Dec-07 10:52 187 6.1
2019-Dec-07 10:47 187 6.1
2019-Dec-07 10:42 187 6.1
2019-Dec-07 10:37 187 0 gusting 0 6.1
2019-Dec-07 10:32 187 0 gusting 1 6.1
2019-Dec-07 10:27 187 1 gusting 2 6.1
2019-Dec-07 10:22 187 0 gusting 1 6.1
2019-Dec-07 10:17 187 0 gusting 0 6.1
2019-Dec-07 10:12 187 0 gusting 1 6.1
2019-Dec-07 10:07 187 6.1
2019-Dec-07 10:02 187 6.1
2019-Dec-07 09:57 187 6.1
2019-Dec-07 09:52 187 6.1
2019-Dec-07 09:47 187 6.1
2019-Dec-07 09:42 187 0 gusting 0 6.1
2019-Dec-07 09:37 187 6.1
2019-Dec-07 09:32 187 6.1
2019-Dec-07 09:27 187 6.1
2019-Dec-07 09:22 187 6.1
2019-Dec-07 09:17 187 6.1
2019-Dec-07 09:12 187 0 gusting 0 6.7
2019-Dec-07 09:07 187 0 gusting 0 6.7
2019-Dec-07 09:02 187 0 gusting 1 6.7
2019-Dec-07 08:57 187 6.7
2019-Dec-07 08:52 187 6.7
2019-Dec-07 08:47 187 0 gusting 1 6.7
2019-Dec-07 08:42 187 0 gusting 1 6.7
2019-Dec-07 08:37 188 6.7
2019-Dec-07 08:32 188 6.7
2019-Dec-07 08:27 188 6.7
2019-Dec-07 08:22 188 0 gusting 1 6.7
2019-Dec-07 08:17 188 1 gusting 2 6.1
2019-Dec-07 08:12 188 0 gusting 1 6.1
2019-Dec-07 08:07 181 0 gusting 1 6.7
2019-Dec-07 08:02 181 0 gusting 0 6.7
2019-Dec-07 07:57 181 0 gusting 1 6.7
2019-Dec-07 07:52 182 1 gusting 2 6.7
2019-Dec-07 07:47 281 1 gusting 2 6.1
2019-Dec-07 07:42 281 0 gusting 1 6.1
2019-Dec-07 07:37 281 6.1
2019-Dec-07 07:32 281 0 gusting 1 6.1
2019-Dec-07 07:27 281 0 gusting 2 6.1
2019-Dec-07 07:22 281 1 gusting 2 6.1
2019-Dec-07 07:17 281 6.1
2019-Dec-07 07:12 281 1 gusting 2 6.1
2019-Dec-07 07:07 281 0 gusting 1 6.1
2019-Dec-07 07:02 281 0 gusting 2 6.1
2019-Dec-07 06:57 281 0 gusting 2 6.1
2019-Dec-07 06:52 303 0 gusting 2 6.1
2019-Dec-07 06:47 327 0 gusting 0 6.1
2019-Dec-07 06:42 327 6.1
2019-Dec-07 06:37 327 6.1
2019-Dec-07 06:32 327 0 gusting 0 6.1
2019-Dec-07 06:27 327 0 gusting 2 6.1
2019-Dec-07 06:22 327 0 gusting 2 6.1
2019-Dec-07 06:17 334 1 gusting 2 6.1
2019-Dec-07 06:12 101 0 gusting 1 6.1
2019-Dec-07 06:07 101 0 gusting 0 6.1
2019-Dec-07 06:02 101 0 gusting 1 6.1
2019-Dec-07 05:57 101 1 gusting 2 6.1
2019-Dec-07 05:52 101 1 gusting 2 6.1
2019-Dec-07 05:47 101 0 gusting 2 6.1
2019-Dec-07 05:42 101 2 gusting 2 6.7
2019-Dec-07 05:37 247 0 gusting 2 6.7
2019-Dec-07 05:32 247 1 gusting 2 6.1
2019-Dec-07 05:27 247 1 gusting 2 6.7
2019-Dec-07 05:22 247 1 gusting 2 6.1
2019-Dec-07 05:17 247 0 gusting 2 6.1
2019-Dec-07 05:12 247 1 gusting 2 6.7
2019-Dec-07 05:07 247 0 gusting 2 6.7
2019-Dec-07 05:02 247 1 gusting 2 6.7
2019-Dec-07 04:57 247 1 gusting 2 6.7
2019-Dec-07 04:52 247 1 gusting 2 6.7
2019-Dec-07 04:47 247 0 gusting 2 6.7
2019-Dec-07 04:42 247 0 gusting 2 6.7
2019-Dec-07 04:37 247 0 gusting 2 6.7
2019-Dec-07 04:32 247 6.7
2019-Dec-07 04:27 247 0 gusting 2 6.7
2019-Dec-07 04:22 247 6.7
2019-Dec-07 04:17 247 2 gusting 2 6.7
2019-Dec-07 04:12 247 0 gusting 2 6.7
2019-Dec-07 04:07 247 1 gusting 2 6.7
2019-Dec-07 04:02 247 0 gusting 1 6.7
2019-Dec-07 03:57 247 0 gusting 2 6.7
2019-Dec-07 03:52 247 1 gusting 2 6.7
2019-Dec-07 03:47 247 6.7
2019-Dec-07 03:42 247 1 gusting 2 6.7
2019-Dec-07 03:37 247 1 gusting 2 6.7
2019-Dec-07 03:32 247 0 gusting 1 6.7
2019-Dec-07 03:27 247 0 gusting 1 7.2
2019-Dec-07 03:22 247 7.2
2019-Dec-07 03:17 247 0 gusting 0 7.2
2019-Dec-07 03:12 247 0 gusting 1 7.2
2019-Dec-07 03:07 247 0 gusting 1 7.2
2019-Dec-07 03:02 247 7.2
2019-Dec-07 02:57 247 7.2
2019-Dec-07 02:52 247 0 gusting 1 7.2
2019-Dec-07 02:47 247 0 gusting 2 7.2
2019-Dec-07 02:42 256 2 gusting 2 7.2
2019-Dec-07 02:37 275 0 gusting 2 7.2
2019-Dec-07 02:32 275 0 gusting 2 7.2
2019-Dec-07 02:27 275 7.2
2019-Dec-07 02:22 275 0 gusting 1 7.2
2019-Dec-07 02:17 275 7.2
2019-Dec-07 02:12 275 7.2
2019-Dec-07 02:07 275 7.2
2019-Dec-07 02:02 275 7.2
2019-Dec-07 01:57 275 7.2
2019-Dec-07 01:52 275 7.2
2019-Dec-07 01:47 275 0 gusting 1 7.2
2019-Dec-07 01:42 275 0 gusting 0 7.2
2019-Dec-07 01:37 275 7.2
2019-Dec-07 01:32 275 7.2
2019-Dec-07 01:27 275 7.2
2019-Dec-07 01:22 275 0 gusting 1 7.2
2019-Dec-07 01:17 275 7.2
2019-Dec-07 01:12 275 0 gusting 2 7.2
2019-Dec-07 01:07 275 1 gusting 2 7.2
2019-Dec-07 01:02 275 1 gusting 2 7.2
2019-Dec-07 00:57 275 7.2
2019-Dec-07 00:52 275 0 gusting 1 7.2
2019-Dec-07 00:47 275 1 gusting 1 7.2
2019-Dec-07 00:42 275 1 gusting 2 7.2
2019-Dec-07 00:37 275 1 gusting 2 7.2
2019-Dec-07 00:32 275 0 gusting 1 7.2
2019-Dec-07 00:27 275 1 gusting 2 7.8
2019-Dec-07 00:22 275 0 gusting 2 7.8
2019-Dec-07 00:17 275 0 gusting 1 7.8
2019-Dec-07 00:12 275 0 gusting 2 7.8
2019-Dec-07 00:07 275 0 gusting 2 7.8
2019-Dec-07 00:02 275 0 gusting 1 7.8
2019-Dec-06 23:57 275 0 gusting 1 7.8
2019-Dec-06 23:52 275 0 gusting 1 7.8
2019-Dec-06 23:47 275 1 gusting 5 7.8
2019-Dec-06 23:42 275 2 gusting 2 7.8
2019-Dec-06 23:37 282 1 gusting 2 7.8
2019-Dec-06 23:32 264 1 gusting 5 7.8
2019-Dec-06 23:27 260 3 gusting 6 7.8
2019-Dec-06 23:22 253 2 gusting 2 7.8
2019-Dec-06 23:17 248 3 gusting 6 7.8
2019-Dec-06 23:12 263 2 gusting 5 7.8
2019-Dec-06 23:07 259 2 gusting 5 7.8
2019-Dec-06 23:02 253 2 gusting 5 7.8
2019-Dec-06 22:57 260 2 gusting 2 7.8
2019-Dec-06 22:52 241 2 gusting 4 7.8
2019-Dec-06 22:47 265 1 gusting 2 7.8
2019-Dec-06 22:42 262 1 gusting 2 7.8
2019-Dec-06 22:37 262 1 gusting 2 7.8
2019-Dec-06 22:32 277 1 gusting 2 7.8
2019-Dec-06 22:27 269 1 gusting 2 7.8
2019-Dec-06 22:22 269 1 gusting 2 7.8
2019-Dec-06 22:17 269 1 gusting 2 7.2
2019-Dec-06 22:12 269 0 gusting 2 7.8
2019-Dec-06 22:07 263 1 gusting 2 7.8
2019-Dec-06 22:02 290 1 gusting 2 7.8
2019-Dec-06 21:57 290 1 gusting 2 7.8
2019-Dec-06 21:52 062 0 gusting 1 7.8
2019-Dec-06 21:47 062 0 gusting 1 7.8
2019-Dec-06 21:42 062 7.8
2019-Dec-06 21:37 062 7.8
2019-Dec-06 21:32 062 7.8
2019-Dec-06 21:27 062 1 gusting 2 7.8
2019-Dec-06 21:22 062 1 gusting 2 7.8
2019-Dec-06 21:17 062 0 gusting 2 7.8
2019-Dec-06 21:12 062 0 gusting 1 7.8
2019-Dec-06 21:07 062 0 gusting 2 7.8
2019-Dec-06 21:02 250 7.8
2019-Dec-06 20:57 250 0 gusting 1 7.8
2019-Dec-06 20:52 250 1 gusting 2 7.8
2019-Dec-06 20:47 250 1 gusting 2 7.8
2019-Dec-06 20:42 250 7.8
2019-Dec-06 20:37 250 0 gusting 2 7.8
2019-Dec-06 20:32 252 1 gusting 2 7.8
2019-Dec-06 20:27 252 1 gusting 2 7.8
2019-Dec-06 20:22 252 0 gusting 2 7.8
2019-Dec-06 20:17 252 1 gusting 2 7.8
2019-Dec-06 20:12 252 1 gusting 2 7.8
2019-Dec-06 20:07 252 1 gusting 2 7.8
2019-Dec-06 20:02 252 1 gusting 2 7.8